Weather History for KJRB - August, 2013

Change the Weather History Date:

Saturday, August 17, 2013

  Actual Average (KNYC) Record (KNYC)
Temperature  
Mean Temperature 76 °F 75 °F  
Max Temperature 82 °F 83 °F 95 °F (1944)
Min Temperature 69 °F 68 °F 56 °F (1979)
Degree Days  
Heating Degree Days 0 0  
Month to date heating degree days 0  
Since 1 June heating degree days 19  
Since 1 July heating degree days 0  
Cooling Degree Days 10 10  
Month to date cooling degree days 186  
Year to date cooling degree days 822  
Since 1 June cooling degree days 753  
Growing Degree Days 26 (Base 50)    
Moisture  
Dew Point 56 °F    
Average Humidity 54    
Maximum Humidity 69    
Minimum Humidity 39    
Precipitation  
Precipitation 0.00 in 0.14 in 2.86 in (1974)
Month to date precipitation 2.56  
Year to date precipitation 31.36  
Snow  
Snow 0.00 in 0.00 in 0.00 in (2002)
Month to date snowfall 0.0  
Since 1 July snowfall 0.0  
Snow Depth -    
Sea Level Pressure  
Sea Level Pressure 30.25 in    
Wind  
Wind Speed 3 mph (WSW)    
Max Wind Speed 9 mph    
Max Gust Speed -    
Visibility 10 miles    
Events      
T = Trace of Precipitation, MM = Missing Value Source: NWS Daily Summary

Daily Weather History Graph

Daily Weather History Graph

Search for Another Location

Airport or City:

Trip Planner

Search our weather history database for the weather conditions in past years. The results will help you decide how hot, cold, wet, or windy it might be!

Date:

Astronomy

Aug. 17, 2013 Rise Set
Actual Time 6:08 AM EDT 7:50 PM EDT
Civil Twilight 5:39 AM EDT 8:19 PM EDT
Nautical Twilight 5:03 AM EDT 8:55 PM EDT
Astronomical Twilight 4:26 AM EDT 9:32 PM EDT
Moon 5:04 PM EDT (8/17) 2:08 AM EDT (8/17)
Length of Visible Light 14h 40m
Length of Day
13h 42m
Waxing Gibbous, 84% of the Moon is Illuminated
Aug 17
Waxing Gibbous
Aug 20
Full
Aug 28
Last Quarter
Sep 5
New
Sep 12
First Quarter

Hourly Weather History & Observations

Time (EDT) Temp. Heat Index Dew Point Humidity Pressure Visibility Wind Dir Wind Speed Gust Speed Precip Events Conditions
12:15 AM 71.6 °F - 57.2 °F 60% 30.23 in 10.0 mi SW 4.6 mph - N/A   Clear
12:35 AM 69.8 °F - 57.2 °F 64% 30.23 in 10.0 mi West 4.6 mph - N/A   Clear
12:55 AM 69.8 °F - 57.2 °F 64% 30.23 in 10.0 mi West 4.6 mph - N/A   Clear
1:15 AM 69.8 °F - 57.2 °F 64% 30.23 in 10.0 mi West 4.6 mph - N/A   Clear
1:35 AM 69.8 °F - 57.2 °F 64% 30.23 in 10.0 mi West 5.8 mph - N/A   Clear
1:55 AM 69.8 °F - 57.2 °F 64% 30.23 in 10.0 mi West 3.5 mph - N/A   Clear
2:15 AM 69.8 °F - 57.2 °F 64% 30.23 in 10.0 mi West 3.5 mph - N/A   Clear
2:35 AM 69.8 °F - 57.2 °F 64% 30.23 in 10.0 mi Calm Calm - N/A   Clear
2:55 AM 69.8 °F - 57.2 °F 64% 30.23 in 10.0 mi Calm Calm - N/A   Clear
3:15 AM 69.8 °F - 57.2 °F 64% 30.24 in 10.0 mi West 3.5 mph - N/A   Clear
3:35 AM 69.8 °F - 57.2 °F 64% 30.24 in 10.0 mi WSW 3.5 mph - N/A   Clear
3:55 AM 69.8 °F - 57.2 °F 64% 30.23 in 10.0 mi West 3.5 mph - N/A   Clear
4:15 AM 69.8 °F - 55.4 °F 60% 30.23 in 10.0 mi Calm Calm - N/A   Clear
4:35 AM 69.8 °F - 55.4 °F 60% 30.22 in 10.0 mi NNW 3.5 mph - N/A   Clear
4:55 AM 69.8 °F - 55.4 °F 60% 30.22 in 10.0 mi North 3.5 mph - N/A   Clear
5:15 AM 69.8 °F - 55.4 °F 60% 30.23 in 10.0 mi North 3.5 mph - N/A   Clear
5:35 AM 69.8 °F - 55.4 °F 60% 30.23 in 10.0 mi Calm Calm - N/A   Clear
5:55 AM 69.8 °F - 55.4 °F 60% 30.24 in 10.0 mi Calm Calm - N/A   Clear
6:15 AM 69.8 °F - 57.2 °F 64% 30.25 in 10.0 mi Calm Calm - N/A   Clear
6:35 AM 69.8 °F - 57.2 °F 64% 30.25 in 10.0 mi Calm Calm - N/A   Clear
6:55 AM 69.8 °F - 57.2 °F 64% 30.25 in 10.0 mi Calm Calm - N/A   Clear
7:15 AM 69.8 °F - 59.0 °F 68% 30.25 in 10.0 mi NNE 3.5 mph - N/A   Clear
7:35 AM 69.8 °F - 57.2 °F 64% 30.25 in 10.0 mi Calm Calm - N/A   Clear
7:55 AM 69.8 °F - 57.2 °F 64% 30.26 in 10.0 mi Calm Calm - N/A   Clear
8:15 AM 69.8 °F - 57.2 °F 64% 30.27 in 10.0 mi Calm Calm - N/A   Clear
8:35 AM 71.6 °F - 57.2 °F 60% 30.28 in 10.0 mi Calm Calm - N/A   Clear
8:55 AM 71.6 °F - 57.2 °F 60% 30.28 in 10.0 mi Calm Calm - N/A   Clear
9:15 AM 73.4 °F - 57.2 °F 57% 30.28 in 10.0 mi Calm Calm - N/A   Clear
9:35 AM 73.4 °F - 57.2 °F 57% 30.27 in 10.0 mi Calm Calm - N/A   Clear
9:55 AM 75.2 °F - 57.2 °F 53% 30.28 in 10.0 mi Calm Calm - N/A   Clear
10:15 AM 77.0 °F - 57.2 °F 50% 30.28 in 10.0 mi West 3.5 mph - N/A   Clear
10:35 AM 78.8 °F - 57.2 °F 47% 30.28 in 10.0 mi West 4.6 mph - N/A   Clear
10:55 AM 80.6 °F 80.5 °F 55.4 °F 42% 30.27 in 10.0 mi WSW 3.5 mph - N/A   Clear
11:15 AM 80.6 °F 80.5 °F 55.4 °F 42% 30.27 in 10.0 mi West 4.6 mph - N/A   Clear
11:35 AM 80.6 °F 80.3 °F 53.6 °F 39% 30.27 in 10.0 mi Calm Calm - N/A   Clear
11:55 AM 80.6 °F 80.5 °F 55.4 °F 42% 30.27 in 10.0 mi West 4.6 mph - N/A   Clear
12:15 PM 78.8 °F - 53.6 °F 42% 30.27 in 10.0 mi WSW 4.6 mph - N/A   Mostly Cloudy
12:35 PM 78.8 °F - 53.6 °F 42% 30.27 in 10.0 mi WSW 4.6 mph - N/A   Mostly Cloudy
12:55 PM 80.6 °F 81.1 °F 59.0 °F 48% 30.27 in 10.0 mi SSW 3.5 mph - N/A   Partly Cloudy
1:15 PM 82.4 °F 82.0 °F 57.2 °F 42% 30.26 in 10.0 mi SW 3.5 mph - N/A   Mostly Cloudy
1:35 PM 82.4 °F 82.0 °F 57.2 °F 42% 30.26 in 10.0 mi WSW 6.9 mph - N/A   Mostly Cloudy
1:55 PM 80.6 °F 80.5 °F 55.4 °F 42% 30.26 in 10.0 mi SSW 8.1 mph - N/A   Overcast
2:15 PM 80.6 °F 80.5 °F 55.4 °F 42% 30.26 in 10.0 mi SW 8.1 mph - N/A   Overcast
2:35 PM 80.6 °F 80.5 °F 55.4 °F 42% 30.25 in 10.0 mi SW 6.9 mph - N/A   Mostly Cloudy
2:55 PM 80.6 °F 80.3 °F 53.6 °F 39% 30.25 in 10.0 mi SW 8.1 mph - N/A   Partly Cloudy
3:15 PM 80.6 °F 80.5 °F 55.4 °F 42% 30.24 in 10.0 mi SW 9.2 mph - N/A   Clear
3:35 PM 80.6 °F 80.5 °F 55.4 °F 42% 30.24 in 10.0 mi WSW 5.8 mph - N/A   Clear
3:55 PM 80.6 °F 80.5 °F 55.4 °F 42% 30.24 in 10.0 mi WSW 8.1 mph - N/A   Clear
4:15 PM 80.6 °F 80.5 °F 55.4 °F 42% 30.24 in 10.0 mi WSW 9.2 mph - N/A   Clear
4:35 PM 80.6 °F 80.5 °F 55.4 °F 42% 30.24 in 10.0 mi WSW 9.2 mph - N/A   Clear
4:55 PM 80.6 °F 80.5 °F 55.4 °F 42% 30.25 in 10.0 mi WSW 8.1 mph - N/A   Clear
5:15 PM 80.6 °F 80.3 °F 53.6 °F 39% 30.24 in 10.0 mi SW 4.6 mph - N/A   Clear
5:35 PM 80.6 °F 80.8 °F 57.2 °F 45% 30.24 in 10.0 mi SSW 3.5 mph - N/A   Clear
5:55 PM 80.6 °F 80.5 °F 55.4 °F 42% 30.24 in 10.0 mi SSE 5.8 mph - N/A   Clear
6:15 PM 78.8 °F - 55.4 °F 44% 30.24 in 10.0 mi South 5.8 mph - N/A   Clear
6:35 PM 78.8 °F - 55.4 °F 44% 30.25 in 10.0 mi South 5.8 mph - N/A   Clear
6:55 PM 77.0 °F - 53.6 °F 44% 30.25 in 9.0 mi South 5.8 mph - N/A   Clear
7:15 PM 75.2 °F - 53.6 °F 47% 30.26 in 10.0 mi SSE 5.8 mph - N/A   Scattered Clouds
7:35 PM 75.2 °F - 57.2 °F 53% 30.26 in 10.0 mi South 4.6 mph - N/A   Mostly Cloudy
7:55 PM 75.2 °F - 57.2 °F 53% 30.26 in 10.0 mi SSW 5.8 mph - N/A   Scattered Clouds
8:15 PM 75.2 °F - 55.4 °F 50% 30.26 in 10.0 mi South 3.5 mph - N/A   Partly Cloudy
8:35 PM 75.2 °F - 55.4 °F 50% 30.26 in 10.0 mi Calm Calm - N/A   Partly Cloudy
8:55 PM 73.4 °F - 55.4 °F 53% 30.27 in 10.0 mi Calm Calm - N/A   Clear
9:15 PM 73.4 °F - 53.6 °F 50% 30.27 in 10.0 mi Calm Calm - N/A   Clear
9:35 PM 73.4 °F - 55.4 °F 53% 30.27 in 10.0 mi West 3.5 mph - N/A   Clear
9:55 PM 73.4 °F - 55.4 °F 53% 30.28 in 10.0 mi Calm Calm - N/A   Clear
10:15 PM 73.4 °F - 57.2 °F 57% 30.28 in 10.0 mi Calm Calm - N/A   Clear
10:35 PM 73.4 °F - 57.2 °F 57% 30.28 in 10.0 mi West 3.5 mph - N/A   Clear
10:55 PM 73.4 °F - 60.8 °F 65% 30.28 in 10.0 mi Calm Calm - N/A   Clear
11:15 PM 71.6 °F - 60.8 °F 69% 30.28 in 10.0 mi WSW 3.5 mph - N/A   Clear
11:35 PM 71.6 °F - 60.8 °F 69% 30.28 in 10.0 mi Calm Calm - N/A   Clear
11:55 PM 71.6 °F - 60.8 °F 69% 30.27 in 10.0 mi Calm Calm - N/A   Clear